Anaktuvuk Pass, AK

3:47 PM AKDT on June 25, 2017 (GMT -0800)
Anaktuvuk Pass

Weather History for PAKP - November, 2012

Change the Weather History Date:

Saturday, November 24, 2012

  Actual Average Record
Temperature  
Mean Temperature -4 °F -  
Max Temperature 6 °F 1 °F 30 °F (2002)
Min Temperature -13 °F -4 °F -29 °F (2011)
Degree Days  
Heating Degree Days 68    
Moisture  
Dew Point -16 °F    
Average Humidity 61    
Maximum Humidity 77    
Minimum Humidity 43    
Precipitation  
Precipitation 0.00 in - - ()
Sea Level Pressure  
Sea Level Pressure 30.11 in    
Wind  
Wind Speed 2 mph (NNE)    
Max Wind Speed 12 mph    
Max Gust Speed -    
Visibility 10 miles    
Events      
Averages and records for this station are not official NWS values.
T = Trace of Precipitation, MM = Missing Value Source: NWS Daily Summary

Daily Weather History Graph

Daily Weather History Graph

Search for Another Location

Airport or City:

Trip Planner

Search our weather history database for the weather conditions in past years. The results will help you decide how hot, cold, wet, or windy it might be!

Date:

Astronomy

Nov. 24, 2012 Rise Set
Actual Time 11:11 AM AKST 2:35 PM AKST
Civil Twilight 9:33 AM AKST 4:13 PM AKST
Nautical Twilight 8:14 AM AKST 5:32 PM AKST
Astronomical Twilight 7:06 AM AKST 6:40 PM AKST
Moon 2:08 PM AKST (11/24) 5:46 AM AKST (11/24)
Length of Visible Light 6h 39m
Length of Day
3h 23m
Waxing Gibbous, 88% of the Moon is Illuminated
Nov 24
Waxing Gibbous
Nov 28
Full
Dec 6
Last Quarter
Dec 12
New
Dec 19
First Quarter

Hourly Weather History & Observations

Time (AKST) Temp. Windchill Dew Point Humidity Pressure Visibility Wind Dir Wind Speed Gust Speed Precip Events Conditions
12:16 AM -11.2 °F - -20.2 °F 64% 30.11 in 10.0 mi Calm Calm - N/A   Clear
12:36 AM -11.2 °F -20.6 °F -20.2 °F 64% 30.10 in 10.0 mi SSW 3.5 mph - N/A   Clear
12:56 AM -11.2 °F -20.6 °F -20.2 °F 64% 30.11 in 10.0 mi SSW 3.5 mph - N/A   Clear
1:16 AM -11.2 °F - -20.2 °F 64% 30.11 in 10.0 mi Calm Calm - N/A   Clear
1:36 AM -9.4 °F - -18.4 °F 65% 30.11 in 10.0 mi Calm Calm - N/A   Clear
1:56 AM -9.4 °F - -20.2 °F 59% 30.11 in 10.0 mi Calm Calm - N/A   Clear
2:16 AM -11.2 °F - -22.0 °F 59% 30.11 in 10.0 mi Calm Calm - N/A   Clear
2:36 AM -11.2 °F - -22.0 °F 59% 30.11 in 10.0 mi Calm Calm - N/A   Clear
3:16 AM -13.0 °F - -22.0 °F 64% 30.11 in 10.0 mi Calm Calm - N/A   Clear
3:36 AM -11.2 °F - -18.4 °F 70% 30.11 in 10.0 mi Calm Calm - N/A   Clear
3:56 AM -11.2 °F - -18.4 °F 70% 30.11 in 10.0 mi Calm Calm - N/A   Clear
4:16 AM -9.4 °F - -20.2 °F 59% 30.12 in 10.0 mi Calm Calm - N/A   Clear
4:36 AM -9.4 °F - -20.2 °F 59% 30.11 in 10.0 mi Calm Calm - N/A   Clear
4:56 AM -9.4 °F - -22.0 °F 54% 30.11 in 10.0 mi Calm Calm - N/A   Clear
5:16 AM -9.4 °F - -16.6 °F 71% 30.10 in 10.0 mi Calm Calm - N/A   Clear
5:36 AM -9.4 °F - -20.2 °F 59% 30.10 in 10.0 mi Calm Calm - N/A   Clear
5:56 AM -9.4 °F - -20.2 °F 59% 30.10 in 10.0 mi Calm Calm - N/A   Clear
6:16 AM -9.4 °F - -18.4 °F 65% 30.09 in 10.0 mi Calm Calm - N/A   Clear
6:36 AM -9.4 °F - -16.6 °F 71% 30.09 in 10.0 mi Calm Calm - N/A   Clear
6:56 AM -9.4 °F - -20.2 °F 59% 30.09 in 10.0 mi Calm Calm - N/A   Clear
7:16 AM -9.4 °F - -18.4 °F 65% 30.09 in 10.0 mi Calm Calm - N/A   Clear
7:36 AM -11.2 °F - -20.2 °F 64% 30.10 in 10.0 mi Calm Calm - N/A   Clear
7:56 AM -11.2 °F - -23.8 °F 54% 30.10 in 10.0 mi Calm Calm - N/A   Clear
8:16 AM -9.4 °F - -18.4 °F 65% 30.10 in 10.0 mi Calm Calm - N/A   Clear
8:36 AM -9.4 °F - -18.4 °F 65% 30.10 in 10.0 mi Calm Calm - N/A   Clear
8:56 AM -13.0 °F - -25.6 °F 53% 30.10 in 10.0 mi Calm Calm - N/A   Clear
9:16 AM -9.4 °F - -18.4 °F 65% 30.10 in 10.0 mi Calm Calm - N/A   Clear
9:36 AM -11.2 °F - -20.2 °F 64% 30.10 in 10.0 mi Calm Calm - N/A   Clear
9:56 AM -9.4 °F - -20.2 °F 59% 30.10 in 10.0 mi Calm Calm - N/A   Clear
10:16 AM -9.4 °F - -18.4 °F 65% 30.10 in 10.0 mi Calm Calm - N/A   Clear
10:36 AM -7.6 °F - -16.6 °F 65% 30.11 in 10.0 mi Calm Calm - N/A   Clear
10:56 AM -7.6 °F - -18.4 °F 59% 30.11 in 10.0 mi Calm Calm - N/A   Clear
11:16 AM -4.0 °F - -11.2 °F 71% 30.11 in 10.0 mi Calm Calm - N/A   Clear
11:36 AM -4.0 °F - -13.0 °F 65% 30.11 in 10.0 mi Calm Calm - N/A   Clear
11:56 AM -7.6 °F - -20.2 °F 54% 30.11 in 10.0 mi Calm Calm - N/A   Clear
12:16 PM -7.6 °F - -16.6 °F 65% 30.11 in 10.0 mi Calm Calm - N/A   Clear
12:36 PM -5.8 °F - -13.0 °F 71% 30.10 in 10.0 mi Calm Calm - N/A   Clear
12:56 PM -7.6 °F -16.5 °F -16.6 °F 65% 30.10 in 10.0 mi North 3.5 mph - N/A   Clear
1:16 PM -5.8 °F -18.4 °F -11.2 °F 77% 30.11 in 10.0 mi North 5.8 mph - N/A   Clear
1:36 PM -5.8 °F - -16.6 °F 60% 30.11 in 10.0 mi Calm Calm - N/A   Clear
1:56 PM -7.6 °F -22.1 °F -16.6 °F 65% 30.12 in 10.0 mi North 6.9 mph - N/A   Clear
2:16 PM -5.8 °F -16.7 °F -14.8 °F 65% 30.11 in 10.0 mi North 4.6 mph - N/A   Clear
2:36 PM -5.8 °F -14.5 °F -14.8 °F 65% 30.11 in 10.0 mi NNE 3.5 mph - N/A   Clear
2:56 PM -5.8 °F - -14.8 °F 65% 30.11 in 10.0 mi Calm Calm - N/A   Clear
3:16 PM -5.8 °F - -16.6 °F 60% 30.11 in 10.0 mi Calm Calm - N/A   Clear
3:36 PM -5.8 °F -14.5 °F -14.8 °F 65% 30.10 in 10.0 mi NNE 3.5 mph - N/A   Clear
3:56 PM -5.8 °F -14.5 °F -11.2 °F 77% 30.11 in 10.0 mi NNE 3.5 mph - N/A   Clear
4:16 PM -2.2 °F -10.4 °F -9.4 °F 71% 30.11 in 10.0 mi NNE 3.5 mph - N/A   Clear
4:36 PM -2.2 °F -10.4 °F -13.0 °F 60% 30.11 in 10.0 mi North 3.5 mph - N/A   Clear
4:56 PM -2.2 °F -10.4 °F -14.8 °F 55% 30.11 in 10.0 mi North 3.5 mph - N/A   Clear
5:16 PM -2.2 °F -12.5 °F -13.0 °F 60% 30.11 in 10.0 mi North 4.6 mph - N/A   Partly Cloudy
5:36 PM -4.0 °F -17.8 °F -14.8 °F 60% 30.11 in 10.0 mi North 6.9 mph - N/A   Partly Cloudy
5:56 PM -0.4 °F -17.6 °F -9.4 °F 66% 30.11 in 10.0 mi NNE 11.5 mph - N/A   Clear
6:16 PM -4.0 °F -20.2 °F -16.6 °F 55% 30.11 in 10.0 mi NNE 9.2 mph - N/A   Clear
6:36 PM -2.2 °F -18.9 °F -13.0 °F 60% 30.12 in 10.0 mi NNE 10.4 mph - N/A   Clear
6:56 PM -2.2 °F -18.9 °F -13.0 °F 60% 30.12 in 10.0 mi NNE 10.4 mph - N/A   Clear
7:16 PM -2.2 °F -18.0 °F -14.8 °F 55% 30.13 in 10.0 mi NNE 9.2 mph - N/A   Partly Cloudy
7:36 PM -0.4 °F -14.7 °F -13.0 °F 55% 30.12 in 10.0 mi NE 8.1 mph - N/A   Partly Cloudy
7:56 PM 1.4 °F -14.5 °F -11.2 °F 56% 30.12 in 10.0 mi NNE 10.4 mph - N/A   Clear
8:16 PM 1.4 °F -13.5 °F -13.0 °F 51% 30.13 in 10.0 mi NNE 9.2 mph - N/A   Clear
8:36 PM 1.4 °F -13.5 °F -13.0 °F 51% 30.13 in 10.0 mi NNE 9.2 mph - N/A   Clear
8:56 PM -0.4 °F -17.6 °F -13.0 °F 55% 30.13 in 10.0 mi NNE 11.5 mph - N/A   Partly Cloudy
9:16 PM -0.4 °F -16.7 °F -14.8 °F 51% 30.13 in 10.0 mi NNE 10.4 mph - N/A   Clear
9:36 PM -0.4 °F -16.7 °F -13.0 °F 55% 30.13 in 10.0 mi NNE 10.4 mph - N/A   Clear
9:56 PM 1.4 °F -13.5 °F -13.0 °F 51% 30.14 in 10.0 mi North 9.2 mph - N/A   Partly Cloudy
10:16 PM 1.4 °F -13.5 °F -14.8 °F 47% 30.14 in 10.0 mi NE 9.2 mph - N/A   Scattered Clouds
10:36 PM 6.8 °F -3.5 °F -7.6 °F 52% 30.14 in 10.0 mi NNE 5.8 mph - N/A   Scattered Clouds
10:56 PM -0.4 °F -14.7 °F -18.4 °F 43% 30.15 in 10.0 mi NNE 8.1 mph - N/A   Mostly Cloudy
11:16 PM 3.2 °F -13.1 °F -9.4 °F 56% 30.15 in 10.0 mi NE 11.5 mph - N/A   Overcast
11:36 PM 3.2 °F -10.3 °F -11.2 °F 51% 30.16 in 10.0 mi NNE 8.1 mph - N/A   Overcast
11:56 PM 5.0 °F -10.0 °F -9.4 °F 52% 30.17 in 10.0 mi NE 10.4 mph - N/A   Overcast